Weather History for Harrisburg, IL

Change the Weather History Date:

Tuesday, February 19, 2013

  Actual Average (KMWA) Record (KMWA)
Temperature  
Mean Temperature 34 °F -  
Max Temperature 41 °F 47 °F 69 °F (1986)
Min Temperature 26 °F 29 °F -8 °F (1993)
Degree Days  
Heating Degree Days 32    
Moisture  
Dew Point 22 °F    
Average Humidity 64    
Maximum Humidity 87    
Minimum Humidity 41    
Precipitation  
Precipitation 0.00 in - - ()
Sea Level Pressure  
Sea Level Pressure 30.10 in    
Wind  
Wind Speed 16 mph (WNW)    
Max Wind Speed 24 mph    
Max Gust Speed 32 mph    
Visibility 10 miles    
Events      
Averages and records for this station are not official NWS values.
T = Trace of Precipitation, MM = Missing Value Source: NWS Daily Summary

Daily Weather History Graph

Daily Weather History Graph

Search for Another Location

Airport:

Trip Planner

Search our weather history database for the weather conditions in past years. The results will help you decide how hot, cold, wet, or windy it might be!

Date:

Astronomy

Feb. 19, 2013 Rise Set
Actual Time 6:38 AM CST 5:37 PM CST
Civil Twilight 6:12 AM CST 6:04 PM CST
Nautical Twilight 5:41 AM CST 6:35 PM CST
Astronomical Twilight 5:11 AM CST 7:05 PM CST
Moon 12:12 PM CST (2/19) 2:07 AM CST (2/19)
Length of Visible Light 11h 52m
Length of Day
10h 59m
Waxing Gibbous, 67% of the Moon is Illuminated
Feb 19
Waxing Gibbous
Feb 25
Full
Mar 4
Last Quarter
Mar 11
New
Mar 19
First Quarter

Hourly Weather History & Observations

Time (CST) Temp. Windchill Dew Point Humidity Pressure Visibility Wind Dir Wind Speed Gust Speed Precip Events Conditions
12:15 AM 41.0 °F 34.7 °F 35.6 °F 81% 29.85 in 10.0 mi WNW 10.4 mph 25.3 mph N/A   Overcast
12:35 AM 41.0 °F 33.5 °F 35.6 °F 81% 29.87 in 10.0 mi WNW 13.8 mph 18.4 mph N/A   Overcast
12:55 AM 41.0 °F 31.9 °F 33.8 °F 76% 29.88 in 10.0 mi WNW 19.6 mph 29.9 mph N/A   Overcast
1:15 AM 37.4 °F 28.2 °F 32.0 °F 81% 29.90 in 10.0 mi WNW 16.1 mph 32.2 mph N/A   Overcast
1:35 AM 35.6 °F 25.5 °F 32.0 °F 87% 29.91 in 10.0 mi WNW 17.3 mph 24.2 mph N/A   Overcast
1:55 AM 35.6 °F 26.6 °F 32.0 °F 87% 29.92 in 10.0 mi WNW 13.8 mph 23.0 mph N/A   Overcast
2:15 AM 35.6 °F 24.2 °F 30.2 °F 81% 29.93 in 10.0 mi WNW 21.9 mph 27.6 mph N/A   Overcast
2:35 AM 35.6 °F 24.8 °F 28.4 °F 75% 29.94 in 10.0 mi West 19.6 mph 32.2 mph N/A   Overcast
2:55 AM 33.8 °F 23.2 °F 28.4 °F 81% 29.94 in 10.0 mi West 17.3 mph 26.5 mph N/A   Overcast
3:15 AM 33.8 °F 22.5 °F 26.6 °F 75% 29.94 in 10.0 mi WNW 19.6 mph 28.8 mph N/A   Overcast
3:35 AM 33.8 °F 23.5 °F 28.4 °F 81% 29.95 in 10.0 mi West 16.1 mph 19.6 mph N/A   Overcast
3:55 AM 32.0 °F 18.9 °F 26.6 °F 80% 29.96 in 10.0 mi WNW 24.2 mph 31.1 mph N/A   Mostly Cloudy
4:15 AM 32.0 °F 21.2 °F 26.6 °F 80% 29.97 in 10.0 mi West 16.1 mph 25.3 mph N/A   Scattered Clouds
4:35 AM 32.0 °F 20.8 °F 26.6 °F 80% 29.97 in 10.0 mi West 17.3 mph 24.2 mph N/A   Clear
4:55 AM 32.0 °F 22.1 °F 26.6 °F 80% 29.98 in 10.0 mi West 13.8 mph - N/A   Clear
5:15 AM 32.0 °F 19.5 °F 24.8 °F 75% 29.99 in 10.0 mi West 21.9 mph 29.9 mph N/A   Clear
5:35 AM 32.0 °F 20.8 °F 23.0 °F 69% 30.00 in 10.0 mi West 17.3 mph - N/A   Clear
5:55 AM 32.0 °F 21.2 °F 23.0 °F 69% 30.00 in 10.0 mi West 16.1 mph 19.6 mph N/A   Clear
6:15 AM 32.0 °F 20.1 °F 23.0 °F 69% 30.01 in 10.0 mi West 19.6 mph 26.5 mph N/A   Clear
6:35 AM 30.2 °F 18.5 °F 21.2 °F 69% 30.02 in 10.0 mi West 17.3 mph 24.2 mph N/A   Clear
6:55 AM 30.2 °F 19.3 °F 23.0 °F 75% 30.03 in 10.0 mi West 15.0 mph 19.6 mph N/A   Clear
7:15 AM 30.2 °F 18.5 °F 23.0 °F 75% 30.04 in 10.0 mi West 17.3 mph 23.0 mph N/A   Clear
7:35 AM 32.0 °F 22.5 °F 23.0 °F 69% 30.05 in 10.0 mi West 12.7 mph - N/A   Clear
7:55 AM 32.0 °F 20.1 °F 21.2 °F 64% 30.06 in 10.0 mi West 19.6 mph 27.6 mph N/A   Clear
8:15 AM 32.0 °F 20.8 °F 21.2 °F 64% 30.06 in 10.0 mi West 17.3 mph 24.2 mph N/A   Clear
8:35 AM 32.0 °F 20.8 °F 21.2 °F 64% 30.07 in 10.0 mi West 17.3 mph 26.5 mph N/A   Clear
8:55 AM 32.0 °F 19.2 °F 21.2 °F 64% 30.08 in 10.0 mi West 23.0 mph - N/A   Clear
9:15 AM 32.0 °F 19.8 °F 21.2 °F 64% 30.08 in 10.0 mi West 20.7 mph 25.3 mph N/A   Clear
9:35 AM 32.0 °F 19.5 °F 21.2 °F 64% 30.08 in 10.0 mi WNW 21.9 mph - N/A   Clear
9:55 AM 32.0 °F 20.1 °F 21.2 °F 64% 30.10 in 10.0 mi West 19.6 mph 26.5 mph N/A   Clear
10:15 AM 33.8 °F 22.2 °F 21.2 °F 60% 30.10 in 10.0 mi West 20.7 mph 27.6 mph N/A   Clear
10:35 AM 33.8 °F 21.6 °F 23.0 °F 65% 30.11 in 10.0 mi West 23.0 mph - N/A   Clear
10:55 AM 33.8 °F 23.2 °F 21.2 °F 60% 30.11 in 10.0 mi West 17.3 mph 26.5 mph N/A   Clear
11:15 AM 35.6 °F 25.9 °F 19.4 °F 52% 30.12 in 10.0 mi West 16.1 mph 27.6 mph N/A   Clear
11:35 AM 35.6 °F 24.5 °F 21.2 °F 56% 30.12 in 10.0 mi West 20.7 mph 28.8 mph N/A   Clear
11:55 AM 35.6 °F 25.5 °F 19.4 °F 52% 30.12 in 10.0 mi WNW 17.3 mph 25.3 mph N/A   Clear
12:15 PM 35.6 °F 24.0 °F 21.2 °F 56% 30.13 in 10.0 mi West 23.0 mph 27.6 mph N/A   Clear
12:35 PM 37.4 °F 27.2 °F 21.2 °F 52% 30.13 in 10.0 mi West 19.6 mph 25.3 mph N/A   Clear
12:55 PM 37.4 °F 26.9 °F 21.2 °F 52% 30.13 in 10.0 mi West 20.7 mph 27.6 mph N/A   Clear
1:15 PM 37.4 °F 27.5 °F 21.2 °F 52% 30.13 in 10.0 mi West 18.4 mph 26.5 mph N/A   Clear
1:35 PM 37.4 °F 27.2 °F 21.2 °F 52% 30.13 in 10.0 mi West 19.6 mph 26.5 mph N/A   Clear
1:55 PM 37.4 °F 28.2 °F 21.2 °F 52% 30.13 in 10.0 mi WNW 16.1 mph 23.0 mph N/A   Clear
2:15 PM 37.4 °F 26.1 °F 19.4 °F 48% 30.13 in 10.0 mi West 24.2 mph 28.8 mph N/A   Clear
2:35 PM 37.4 °F 27.5 °F 19.4 °F 48% 30.13 in 10.0 mi West 18.4 mph 28.8 mph N/A   Clear
2:55 PM 37.4 °F 27.5 °F 19.4 °F 48% 30.14 in 10.0 mi West 18.4 mph 28.8 mph N/A   Clear
3:15 PM 37.4 °F 26.9 °F 17.6 °F 45% 30.14 in 10.0 mi WNW 20.7 mph 26.5 mph N/A   Clear
3:35 PM 37.4 °F 26.9 °F 17.6 °F 45% 30.15 in 10.0 mi WNW 20.7 mph 25.3 mph N/A   Clear
3:55 PM 37.4 °F 26.9 °F 17.6 °F 45% 30.16 in 10.0 mi WNW 20.7 mph 25.3 mph N/A   Clear
4:15 PM 37.4 °F 28.2 °F 15.8 °F 41% 30.16 in 10.0 mi WNW 16.1 mph - N/A   Clear
4:35 PM 37.4 °F 27.8 °F 17.6 °F 45% 30.16 in 10.0 mi West 17.3 mph - N/A   Clear
4:55 PM 37.4 °F 28.9 °F 15.8 °F 41% 30.17 in 10.0 mi West 13.8 mph - N/A   Clear
5:15 PM 35.6 °F 27.1 °F 17.6 °F 48% 30.17 in 10.0 mi WNW 12.7 mph - N/A   Clear
6:35 PM 32.0 °F 27.5 °F 19.4 °F 60% 30.20 in 10.0 mi NW 4.6 mph - N/A   Clear
6:55 PM 32.0 °F 23.6 °F 19.4 °F 60% 30.21 in 10.0 mi NNW 10.4 mph - N/A   Clear
7:15 PM 32.0 °F 25.6 °F 19.4 °F 60% 30.21 in 10.0 mi NW 6.9 mph - N/A   Clear
7:35 PM 30.2 °F 21.9 °F 19.4 °F 64% 30.21 in 10.0 mi NNW 9.2 mph - N/A   Clear
7:55 PM 30.2 °F 21.9 °F 17.6 °F 60% 30.23 in 10.0 mi NNW 9.2 mph - N/A   Clear
8:15 PM 30.2 °F 22.6 °F 17.6 °F 60% 30.23 in 10.0 mi NNW 8.1 mph - N/A   Clear
8:35 PM 28.4 °F 20.4 °F 17.6 °F 64% 30.24 in 10.0 mi NNW 8.1 mph - N/A   Clear
8:55 PM 28.4 °F 21.2 °F 17.6 °F 64% 30.25 in 10.0 mi NNW 6.9 mph - N/A   Clear
9:15 PM 28.4 °F 20.4 °F 17.6 °F 64% 30.26 in 10.0 mi NW 8.1 mph - N/A   Clear
9:35 PM 28.4 °F 20.4 °F 17.6 °F 64% 30.27 in 10.0 mi NNW 8.1 mph - N/A   Clear
9:55 PM 28.4 °F 19.7 °F 17.6 °F 64% 30.28 in 10.0 mi NW 9.2 mph - N/A   Clear
10:15 PM 28.4 °F 20.4 °F 17.6 °F 64% 30.28 in 10.0 mi NW 8.1 mph - N/A   Clear
10:35 PM 28.4 °F 20.4 °F 17.6 °F 64% 30.28 in 10.0 mi NW 8.1 mph - N/A   Clear
10:55 PM 28.4 °F 20.4 °F 17.6 °F 64% 30.28 in 10.0 mi NW 8.1 mph - N/A   Clear
11:15 PM 28.4 °F 18.5 °F 14.0 °F 55% 30.28 in 10.0 mi NW 11.5 mph - N/A   Clear
11:35 PM 26.6 °F 19.1 °F 14.0 °F 59% 30.28 in 10.0 mi NW 6.9 mph - N/A   Clear
11:55 PM 26.6 °F 19.1 °F 15.8 °F 64% 30.29 in 10.0 mi NW 6.9 mph - N/A   Clear